Погода Старая Русса

Хотите узнать прогноз погоды Старая Русса? Тогда Вам сюда: Погода Старая Русса

Поиск расширенной информации на нашем сайте:

Полезная информация:

Новости сайта



02.01.2020
Опубликован Долгосрочный прогноз погоды по городам России и ближнего зарубежья на январь 2020 года.
Карты: Прогноз на январь и февраль 2020 года, Сравнение прогнозируемой аномалии приземной температуры воздуха на январь 2020 года по разным моделям.




Погода Старая Русса - сегодня

Время (UTC), дата Ветер
(°,м/с) 
Видим.   Явления Облачность Т
(°С)
Тd
(°С)
f(%) Тe
(°С)
Pmin
(гПа)
dP
(гПа)
Po
(мм)
O2
(г/м3)
Тmin Tmax R s Состояние
почвы
00 19.01.20 210 (ЮЗ) 20000 м    10/10 300 м 
[St]
+1.3 -0.4 88 -1  1020  0.9  763  306           
03 19.01.20 200 (Ю) 20000 м    10/10 240 м 
[St]
+1.7 +0.2 90 1020.6  0.6  763  306  +0.9         
06 19.01.20 210 (ЮЗ) 20000 м    10/10 960 м 
[Sc]
+2 +0.1 87 +1  1021.4  0.8  764  305  +0.9         
09 19.01.20 210 (ЮЗ) 20000 м    10/10 1000 м 
[Sc]
+2.7 -0.2 81 1022.3  0.9  764  305           
12 19.01.20 210 (ЮЗ) 20000 м    10/10 700 м 
[Sc]
+3.6 +0 77 +2  1022.3  764  304           
15 19.01.20 210 (ЮЗ) 20000 м  {ливн. осадки}  10/10 800 м 
[Sc]
+3.6 +0.4 80 +2  1023  0.7  765  304      0.0     
18 19.01.20 240 (ЮЗ) 20000 м  {ливн. осадки}  10/10 930 м кучево-дожд. 
[Cb cap]
+4.3 +1.3 81 +3  1024.5  1.5  766  304    +4.5  0.0     
21 19.01.20 250 (З) 20000 м    10/10 700 м 
[Sc]
+4.5 +1 78 +3  1025.4  0.9  767  304           
00 20.01.20 250 (З) 5{10}  20000 м    10/10 660 м кучево-дожд. 
[Cb cap]
+4.2 +1 80 +2  1025.9  0.5  767  304           
03 20.01.20 270 (З) 10 км  слаб. ливневой дождь  10/10 500 м кучево-дожд. 
[Cb cap]
+3.7 +1.2 84 +2  1026.2  0.3  767  305  +3.6    0.1     
06 20.01.20 260 (З) 10 км  слаб. дождь{ливн. осадки}  10/10 360 м 
[Frnb|Ns]
+2.8 +1.7 92 +1  1026.1  -0.1  767  306  +2.7    0.6     
09 20.01.20 270 (З) 10 км  слаб. морось{дождь}  10/10 300 м 
[St]
+3.1 +1.7 91 +2  1026.4  0.3  767  306           
12 20.01.20 260 (З) 20000 м  {дождь, морось}  10/0 средняя 
[Ac As]
+3.8 +0.1 77 +2  1025.2  -1.2  767  305           
15 20.01.20 240 (ЮЗ) 20000 м    10/0 средняя 
[Ac As]
+3.2 -0.6 76 +1  1023.9  -1.3  766  305      0.8     
18 20.01.20 250 (З) 20000 м    10/0 средняя 
[Ac As]
+3 -1.5 72 +1  1021.8  -2.1  764  305    +3.9  0.3     
21 20.01.20 240 (ЮЗ) 5{10}  20000 м    8/0 средняя 
[Ac trans]
+3.2 -0.8 75 +1  1018.6  -3.2  762  303           
00 21.01.20 250 (З) 6-10{11}  20000 м    10/10 600 м 
[Sc]
+3.9 +0.1 76 +1  1014.6  -4  759  301           
03 21.01.20 250 (З) 6{13}  20000 м    10/10 540 м 
[Sc]
+4.9 +1.6 79 +2  1011.4  -3.1  756  299  +2.8         
06 21.01.20 260 (З) 5{12}  20000 м    10/10 450 м 
[Sc]
+5.3 +2.9 84 +3  1008.9  -2.5  754  298  +2.9         
09 21.01.20 260 (З) 20000 м  {дождь}  10/10 330 м 
[Sc]
+5.8 +4 88 +4  1006.8  -2.1  753  296           
12 21.01.20 270 (З) 4{10}  10 км  слаб. дождь  10/10 450 м 
[Ns]
+5.7 +4.7 93 +4  1004.6  -2.2  751  296           
15 21.01.20 290 (З) 5-10{11}  20000 м  {дождь}  6/6 300 м кучево-дожд. 
[Cb cap]
+5.2 +2.2 81 +3  1004.4  -0.2  751  297         
18 21.01.20 290 (З) 5{12}  20000 м  {дождь}  ясно 
+3 -1.6 72 +1  1005.9  1.5  752  300    +6     
21 21.01.20 270 (З) 4{10}  20000 м    ясно 
+1.5 -2.6 74 -1  1006  752  302           
00 22.01.20 250 (З) 20000 м    ясно 
+0.5 -3.1 77 -2  1003.8  -2.2  751  302           
Время (UTC), дата Ветер
(°,м/с) 
Видим.   Явления Облачность Т
(°С)
Тd
(°С)
f(%) Тe
(°С)
Pmin
(гПа)
dP
(гПа)
Po
(мм)
O2
(г/м3)
Тmin Tmax R s Состояние
почвы

Для получения пояснительной информации подведите курсор к названию столбца.

ПОГОДА Старая Русса - архив

Всё, что Вы хотите узнать о погоде Старая Русса - удобно и подробно!

Выберите нужную дату (начиная с 1 января 2019* года) и нажмите кнопку "Найти".
Будут отображены архивные сводки погоды по пункту Старая Русса, начиная с указанной даты.


Отображать данные в формате CSV (для использования в таблицах Excel)


Внимание! Наш архив погоды предназначен исключительно для личного некоммерческого использования в познавательных целях. Если Вам необходимы официальные справки о состоянии погоды (для производственных, юридических, коммерческих и т.п. целей), обращайтесь в органы Росгидромета.

*Примечание: данная дата относится к архиву по метеостанциям СССР (Россия, СНГ, Балтия).
Архив по метеостанциям Зарубежной Европы и Азии (кроме Китая) хранится 10 дней, по другим регионам земного шара (Китай, Африка, Америка, Австралия, Океания) - 1 день.

Старая Русса - район местоположения метеостанции


Название, широта, долгота, высота метеостанции:
Старая Русса 58°ш. 31.3°д. 25 м над ур. моря [Российская Федерация]

Дополнительная информация

В oтличие oт бoльшинства пoгoдных сайтoв мы публикуем пoдрoбную метеoинфoрмацию в детальнoм прoфессиoнальнoм фoрмате.

Характеристики температуры и влажнoсти вoздуха измеряются на высoте 2 м в тени вдали oт зданий и деревьев.
Скoрoсть ветра измеряется на высoте 10 м (на урoвне рoста челoвека скoрoсть ветра ниже в 1.5-2 раза). Если метеoстанция нахoдится в гoрoде или в лесу, тo скoрoсть ветра занижена на 2-4 м/с пo сравнению с oткрытым местoм. Скoрoсть ветра над акватoриями крупных рек и oзёр, а также на вершинах хoлмoв на 2-5 м/с выше, чем в oбычных услoвиях.
Атмoсфернoе давление в разных тoчках местнoсти мoжет значительнo oтличаться oт давления на метеoстанции, в зависимoсти oт услoвий рельефа (при пoдъёме на 10 м давление пoнижается примернo на 1 мм рт.ст.).